SCP
0 0 0 0 0 0 0 0 0 0 0 0 0 0 0 0 0 0 0 0 0 0 0 0 0 0 0 0 0 0 0 0 0 0 0 0 0 0 0 0 0 0 0
0 0 0 0 0 0 0 0 0 0 0 0 0 0 -0 0 0 0 0 0 0 0 0 0 0 0 0 0 0 0 0 0 0 0 0 0 0 0 0 0 0 0 0
0 0 0 0 0 0 0 0 0 0 0 0 0 0 -0 0 0 0 0 0 0 0 0 0 0 0 0 0 0 0 0 0 0 0 0 0 0 0 0 0 0 0 0
0 0 0 0 0 0 0 0 0 0 0 0 0 0 0 0 0 0 0 0 0 0 0 0 0 0 0 0 0 0 0 0 0 0 0 0 0 0 0 0 0 0 0
0 0 0 0 0 0 0 0 0 0 0 0 0 0 0 0 0 0 0 0 0 0 0 0 0 0 0 0 0 0 0 0 0 0 0 0 0 0 0 0 0 0 0
0 0 0 0 0 0 0 0 0 0 0 0 0 0 0 0 0 0 0 0 0 0 0 0 0 0 0 0 0 0 0 0 0 0 0 0 0 0 0 0 0 0 0
0 0 0 0 0 0 0 0 0 0 0 0 0 0 0 0 0 0 0 0 0 0 0 0 0 0 0 0 0 0 0 0 0 0 0 0 0 0 0 0 0 0 0
0 0 0 0 0 0 0 0 0 0 0 0 0 0 0 0 0 0 0 0 0 0 0 0 0 0 0 0 0 0 0 0 0 0 0 0 0 0 0 0 0 0 0
0 0 0 0 0 0 0 0 0 0 0 0 0 0 0 0 0 0 0 0 0 0 0 0 0 0 0 0 0 0 0 0 0 0 0 0 0 0 0 0 0 0 0
0 0 0 0 0 0 0 0 0 0 0 0 0 0 0 0 0 0 0 0 0 0 0 0 0 0 0 0 0 0 0 0 0 0 0 0 0 0 0 0 0 0 0
0 0 0 0 0 0 0 0 0 0 0 0 0 0 0 0 0 0 0 0 0 0 0 0 0 0 0 0 0 0 0 0 0 0 0 0 0 0 0 0 0 0 0
0 0 0 -0 0 0 0 0 0 0 0 0 0 0 0 0 0 0 0 0 0 0 0 0 0 0 0 0 0 0 0 0 0 0 0 0 0 0 0 0 0 0 0
0 0 -0 -0 0 0 0 0 0 0 0 0 0 0 0 0 0 0 0 0 0 0 0 0 0 0 0 0 0 0 0 0 0 0 0 0 0 0 0 0 0 0 0
0 0 -0 -0 0 0 0 0 0 0 0 0 0 0 0 0 0 0 0 0 0 0 0 0 0 0 0 0 0 0 0 0 0 0 0 0 0 0 0 0 0 0 0
0 0 0 0 0 0 0 0 0 0 0 0 0 0 0 0 0 0 0 0 0 0 0 0 0 0 0 0 0 0 0 0 0 0 0 0 0 0 0 0 0 0 0
0 0 0 0 0 0 0 0 0 0 0 0 0 0 0 0 0 0 0 0 0 0 0 0 0 0 0 0 0 0 0 0 0 0 0 0 0 0 0 0 0 0 0
0 0 0 0 0 0 0 0 0 0 0 0 0 0 0 0 0 0 0 0 0 0 0 0 0 0 0 0 0 0 0 0 0 0 0 0 0 0 0 0 0 0 0
0 0 0 0 0 0 0 0 0 0 0 0 0 0 0 0 0 0 0 0 0 0 0 0 0 0 0 0 0 0 0 0 0 0 -0 0 0 0 0 0 0 0 0
0 0 0 0 0 0 0 0 0 0 0 0 0 0 0 0 0 0 0 0 0 0 0 0 0 0 0 0 0 0 0 0 0 0 0 0 0 0 0 0 0 0 0
0 0 0 0 0 0 0 0 0 0 0 0 0 0 0 0 0 0 0 0 0 0 0 0 0 0 0 0 0 0 0 0 0 0 0 0 0 0 0 0 0 0 0
0 0 0 0 0 0 0 0 0 0 0 0 0 0 0 0 0 0 0 0 0 0 0 0 0 0 0 0 0 0 0 0 0 0 0 0 0 0 0 0 0 0 0
0 0 0 0 0 0 0 0 0 0 0 0 0 0 0 0 0 0 0 0 0 0 0 0 0 0 0 0 0 0 0 0 0 0 0 0 0 0 0 0 0 0 0
0 0 0 0 0 0 0 0 0 0 0 0 0 0 0 0 0 0 0 0 0 0 0 0 0 0 0 0 0 0 0 0 0 0 0 0 0 0 0 0 0 0 0
0 0 0 0 0 0 0 0 0 0 0 0 0 0 0 0 0 0 0 0 0 0 0 0 0 0 0 0 0 0 0 0 0 0 0 0 0 0 0 0 0 0 0
0 0 0 0 0 0 0 0 0 0 0 0 0 0 0 0 0 0 0 0 0 0 0 0 0 0 -0 -0 -0 0 0 0 0 0 0 0 0 0 0 0 0 0 0
0 0 0 0 0 0 0 0 0 0 0 0 0 0 0 0 0 0 0 0 0 0 0 0 0 0 -0 -0 -0 0 0 0 0 0 0 0 0 0 0 0 0 0 0
Wind_Speed
9 9 9 8 7 6 6 6 4 3 3 2 1 1 1 2 3 3 3 4 5 5 5 6 6 5 4 3 3 3 3 3 3 1 1 1 1 1 2 1 0 1 1
9 8 8 8 8 8 8 7 6 5 4 3 3 3 3 2 2 3 3 3 4 5 5 5 5 5 5 4 4 4 4 3 3 2 0 1 1 1 1 1 1 1 1
8 8 9 9 9 8 8 8 7 6 5 5 5 4 4 4 3 2 3 3 3 3 4 5 5 5 5 3 4 3 3 3 2 2 1 0 1 1 2 2 2 2 2
8 9 9 9 8 8 8 8 7 7 6 6 5 4 4 4 4 3 3 3 3 3 3 3 4 4 5 5 4 4 4 4 3 3 2 1 1 1 1 1 2 2 2
8 8 9 8 8 8 8 8 7 8 8 7 6 5 4 3 3 3 3 4 4 4 4 3 3 4 6 5 4 4 5 4 3 3 2 1 1 1 1 1 1 1 2
7 8 8 9 8 8 8 8 8 8 8 8 8 6 6 4 4 5 4 4 4 4 4 3 3 4 6 7 8 7 7 5 4 3 2 2 1 0 0 1 1 1 2
7 7 8 8 8 8 8 8 8 8 7 8 7 7 6 6 7 7 6 4 4 3 3 3 3 4 6 5 7 8 6 6 6 5 3 2 1 1 1 1 1 1 1
6 7 7 8 8 8 8 8 8 6 6 7 7 7 7 8 10 9 8 6 5 4 4 4 5 4 5 7 7 7 6 5 4 4 3 2 1 1 1 1 1 1 1
6 7 7 7 7 7 8 7 6 6 7 7 6 8 8 8 11 9 8 5 6 6 5 5 5 5 7 9 8 8 7 5 7 9 8 7 7 6 4 3 2 2 2
5 5 5 6 6 7 7 6 5 5 6 6 7 7 8 8 11 11 8 4 5 5 5 5 7 7 8 9 7 7 6 4 4 6 7 8 7 8 8 4 2 2 2
4 4 5 6 6 6 6 6 6 6 6 7 7 7 8 9 10 12 10 4 4 4 4 4 4 9 9 9 7 5 6 6 5 5 5 5 5 5 5 5 4 3 2
4 5 6 6 6 6 6 6 6 6 7 7 7 7 6 7 9 10 12 10 7 5 4 4 5 11 11 10 7 9 11 8 5 5 5 4 4 4 4 4 5 5 5
4 5 4 5 6 6 6 6 5 6 5 5 6 6 6 6 7 12 12 12 10 7 6 9 11 12 11 9 11 11 8 5 4 4 4 3 2 2 2 3 4 5 6
3 3 3 4 5 5 5 5 5 5 5 5 5 5 5 5 5 5 5 5 8 8 6 9 13 14 10 9 9 7 5 4 4 4 3 2 2 3 3 2 2 3 4
2 2 3 3 3 4 4 3 3 3 3 3 3 3 4 5 6 6 4 4 3 4 5 5 5 5 6 5 5 5 5 4 4 3 3 3 3 3 3 3 3 3 3
1 1 1 1 1 2 2 3 5 5 7 9 7 4 3 5 7 9 9 9 9 8 6 5 5 5 5 4 4 4 4 4 3 3 3 3 3 3 3 3 3 4 4
1 0 0 0 1 1 1 2 2 4 7 9 10 9 8 8 9 9 10 11 10 8 6 4 4 4 4 4 3 3 3 3 3 3 3 3 3 3 3 3 3 3 3
0 1 1 1 0 0 0 1 1 1 2 3 6 9 9 9 10 9 8 7 7 6 4 4 3 3 3 3 3 3 3 3 3 3 3 3 3 3 3 3 3 3 3
1 0 1 1 1 1 1 1 1 1 1 2 2 4 7 7 9 10 8 5 4 3 3 3 3 3 3 3 3 3 3 3 3 3 3 3 2 3 3 3 3 4 3
1 2 1 1 1 1 1 1 1 1 1 1 2 2 2 3 3 4 4 3 3 3 2 2 2 2 2 2 2 2 3 3 3 3 2 2 2 2 3 3 2 2 2
1 1 1 1 1 2 2 2 2 1 1 0 1 1 1 2 1 2 2 2 2 2 1 2 2 2 2 2 2 2 3 2 2 2 2 2 2 2 2 2 3 3 3
1 1 1 2 2 2 2 2 2 2 2 2 1 1 1 2 1 1 1 0 1 1 1 1 1 1 1 1 2 2 2 2 1 1 2 2 2 2 2 2 2 2 2
2 2 2 2 2 3 2 2 2 3 3 3 2 2 1 2 2 2 1 1 1 1 1 2 2 1 1 1 1 2 2 1 1 1 1 2 2 2 2 2 2 2 2
2 2 2 2 2 2 3 3 3 3 3 3 3 3 3 3 3 3 3 2 2 2 2 2 2 2 3 2 1 1 1 1 1 1 2 2 2 2 2 2 2 3 3
2 3 3 3 3 3 3 3 4 4 4 4 4 4 4 4 4 4 3 3 3 3 3 3 2 3 3 3 2 2 2 2 2 2 2 2 3 3 3 3 2 2 2
3 3 3 3 3 3 4 4 4 4 4 4 4 4 4 4 4 4 4 4 4 4 4 3 4 5 4 4 4 4 3 3 2 3 3 2 3 3 3 2 3 3 3
Wind_Direction
352 353 357 356 359 3 9 8 6 15 28 44 61 75 138 163 162 165 167 169 176 177 175 176 177 167 171 171 165 170 171 164 181 204 248 324 24 23 19 18 1 268 277
352 355 358 359 5 11 11 8 9 19 28 42 53 57 55 77 123 147 157 166 174 177 177 170 170 169 169 169 169 174 171 170 164 178 191 10 21 10 7 8 1 358 303
354 1 5 6 10 11 10 10 11 19 26 36 48 54 53 54 72 104 121 124 139 159 167 166 163 156 158 159 159 159 154 149 142 147 147 83 31 21 27 16 15 5 347
358 3 7 5 5 6 10 15 18 21 27 32 35 42 48 51 56 63 89 104 114 127 135 143 144 151 156 152 150 149 142 137 133 127 121 90 61 25 54 34 16 8 358
359 4 3 0 4 10 14 15 21 27 30 29 33 32 36 48 58 68 77 94 103 104 99 107 122 139 148 146 143 144 140 129 123 117 109 90 66 44 40 27 18 350 5
3 3 1 3 8 12 13 17 24 26 27 32 31 28 31 33 49 60 71 81 89 99 99 94 106 125 136 136 136 139 139 137 137 127 119 121 135 128 83 61 49 35 3
4 3 3 4 9 10 16 23 24 22 26 30 27 27 26 25 48 65 73 85 85 92 100 102 101 104 107 108 107 104 103 113 128 136 133 148 163 182 149 105 89 75 37
5 3 2 4 8 11 20 23 20 21 25 26 25 22 24 29 43 62 79 81 80 76 80 93 98 95 106 113 105 94 83 75 88 97 115 124 133 149 148 136 134 99 61
4 1 2 6 14 17 19 16 17 25 29 27 26 25 27 24 33 53 70 74 73 63 60 72 92 93 114 117 111 105 91 73 74 84 85 79 75 84 94 88 79 75 55
356 358 4 14 22 21 18 16 17 27 30 31 33 27 28 27 30 46 61 72 74 68 58 59 75 92 103 111 113 115 109 93 86 75 63 55 55 57 58 63 88 90 87
1 16 22 19 26 26 25 22 18 23 30 32 32 28 29 26 28 39 51 62 75 77 69 57 60 85 90 94 99 102 116 114 96 89 76 59 50 46 42 43 48 76 92
29 34 30 25 28 29 31 27 22 22 30 26 25 25 23 20 25 37 52 62 72 79 74 62 68 80 81 84 86 97 103 99 91 83 73 58 48 41 38 44 53 58 61
46 39 33 33 33 31 33 30 26 24 29 26 24 23 15 14 21 38 53 64 68 74 74 79 77 75 73 72 77 86 87 86 89 85 77 57 33 29 43 50 45 56 56
58 42 36 39 34 29 30 30 31 25 24 24 23 19 14 18 19 21 33 52 62 70 71 74 73 70 67 67 66 62 62 76 89 87 78 49 35 46 45 41 46 40 53
60 50 44 44 43 33 31 26 25 18 14 17 10 6 15 18 12 32 55 56 65 81 78 62 55 55 60 57 56 54 52 59 63 58 67 64 55 54 40 31 45 54 67
69 43 40 41 41 37 29 21 26 32 33 39 39 41 32 38 40 53 62 70 78 86 77 71 66 63 63 62 63 55 47 50 51 64 67 66 66 67 59 45 52 67 73
177 188 103 68 53 39 36 37 16 9 28 37 36 44 51 50 55 60 68 68 66 73 75 73 71 66 64 61 59 59 52 42 53 67 72 68 70 69 69 63 61 64 62
168 182 161 177 161 128 78 62 51 37 14 0 14 37 50 56 56 56 63 68 56 50 63 71 69 66 65 64 61 60 60 57 57 62 65 64 66 73 73 69 65 69 65
176 203 192 191 176 158 129 102 79 60 44 14 8 19 32 48 51 48 51 63 72 63 58 61 62 66 67 69 68 66 67 65 64 65 62 62 67 76 78 74 75 73 68
246 245 200 173 147 134 131 133 127 102 43 22 16 360 3 35 40 31 40 56 70 71 68 69 63 69 75 77 76 76 72 67 64 63 61 63 67 79 90 88 85 81 70
253 268 221 164 170 167 168 181 181 171 184 277 316 329 106 95 83 62 54 55 73 87 91 89 80 75 78 86 89 86 86 77 67 68 71 71 80 82 85 91 91 91 95
230 233 218 206 197 189 189 191 186 191 205 215 247 325 116 112 127 126 110 90 104 119 130 127 115 101 108 117 122 118 111 100 82 77 76 77 86 95 99 96 95 92 99
228 233 232 223 209 207 199 194 194 201 211 215 211 208 194 193 198 199 200 193 169 153 143 139 139 135 121 117 128 142 149 158 157 145 126 110 107 108 108 109 111 106 106
231 236 236 230 217 211 211 214 210 210 213 215 214 215 213 210 210 211 207 196 184 178 172 171 178 180 167 151 139 144 170 191 187 182 167 151 137 129 122 115 113 114 116
238 240 238 231 222 220 220 221 219 218 217 217 216 216 216 211 212 212 204 196 193 197 197 190 188 190 191 186 183 197 217 214 193 173 161 151 145 140 137 134 133 127 130
244 243 241 234 228 223 220 223 224 222 223 223 219 215 212 211 212 210 201 195 197 201 203 200 202 199 196 196 205 213 220 225 209 186 163 151 149 150 144 139 141 137 138